STARLINK-5376 (56142 NORAD) Tracking and Keplerian Element Data

This shows tracking and keplerian element data for the satellite.

Feedback or suggestion? Click here.




ElementValue
Catalog56142
NameSTARLINK-5376
Epoch Orbit656
Epoch Day127.25001157
Epoch Year2023
RAAN33.6784
Inclination43.0014
Eccentricity0.0001447
Argument of Perigee265.6633
Mean Anonmoly358.758
Mean Motion15.48879613
Decay Rate0.00072973
L11 56142U 23046BC 23127.25001157 .00072973 00000+0 13147-2 0 9994
L22 56142 43.0014 33.6784 0001447 265.6633 358.7580 15.48879613 6565



Live tracking and technical data element details for STARLINK-5376 (NORAD 56142). STARLINK-5376 can be tracked NOW for your location showing map with azimuth and elevation plus other details from your city location.







IsCatalogInMostPopularTable: catalog: 56142, numindb: 3
Update: records affected: 1



GetName: 56142 STARLINK-5376

Hit Count: updated at: Sat, 03 Jun 2023 17:03:03 GMT